Location: Boussac
(44.9684°N, 2.5312°E)
Time: 20:22:09
(UTC+00:00)

Daily predictions for brighter satellites

Satellite Brightness Start Highest point End
(mag) Time Altitude Azimuth Time Altitude Azimuth Time Altitude Azimuth
Helios 1B rocket 2.3 18:10:58 10° SSE 18:14:45 62° ENE 18:18:33 10° N
Cosmos 2369 Rocket 3.8 18:10:50 10° N 18:14:47 19° NE 18:18:44 10° E
CZ-4 R/B 2.9 18:12:32 10° ESE 18:15:10 18° ENE 18:17:50 10° NNE
Cosmos 1464 Rocket 4.4 18:11:03 10° SSE 18:16:59 44° E 18:22:58 10° NNE
Cosmos 1980 3.8 18:13:13 10° SSW 18:18:55 88° ESE 18:24:38 10° NNE
CZ-4B R/B 4.2 18:21:45 10° ESE 18:24:53 22° ENE 18:28:08 10° NNE
Cosmos 1400 Rocket 4.4 18:23:19 10° NNW 18:26:50 38° W 18:30:19 10° SSW
Meteor 1-13 Rocket 4.5 18:22:23 10° N 18:28:02 50° ENE 18:33:31 10° SSE
Landsat 7 3.9 18:24:03 10° SSE 18:28:45 85° WSW 18:33:29 10° NNW
USA 234 4.1 18:23:18 10° SSE 18:29:39 51° SW 18:36:01 10° WNW
Radarsat Rocket 4.5 18:26:51 10° S 18:33:25 71° WSW 18:39:25 10° NNW
Cosmos 1975 4.3 18:31:26 10° ESE 18:33:47 16° E 18:36:09 10° NE
Resurs 01 Rocket 2.9 18:30:51 10° ESE 18:34:16 22° ENE 18:37:41 10° NNE
Cosmos 1707 2.8 18:36:30 10° NNW 18:40:02 70° W 18:43:34 10° S
Cosmos 2034 Rocket 4.2 18:38:18 10° SSE 18:44:08 47° E 18:50:00 10° NNE
USA 306 4.4 18:43:41 10° NW 18:46:00 18° N 18:48:32 10° NE
ISS -2.0 18:43:11 10° WNW 18:46:05 26° N 18:48:59 10° NE
Meteor PRIRODA 3.7 18:43:03 10° SE 18:46:10 44° ENE 18:49:19 10° N
Cosmos 2208 Rocket 4.0 18:44:30 10° SSW 18:49:47 87° ESE 18:55:11 10° NNE
Cosmos 1733 3.1 18:49:39 10° SSW 18:53:03 72° W 18:56:29 10° N
ACS3 Solar Sail 2.7 18:48:36 12° ESE 18:53:33 31° ENE 18:59:00 10° N
SAR-Lupe-2 3.5 18:50:09 10° SSE 18:53:43 81° ENE 18:57:18 10° NNW
SL-16 R/B 2.4 18:48:19 10° S 18:53:44 49° ESE 18:59:10 10° NE
Cosmos 1805 3.2 18:53:14 10° SSE 18:56:45 47° E 19:00:16 10° NNE
Cosmos 1315 Rocket 2.7 18:54:04 10° N 18:58:04 77° E 19:02:01 10° SSE
Cosmos 1536 3.5 18:56:37 10° SSW 19:00:21 54° W 19:04:09 10° N
Resurs 1-3 3.6 18:57:36 10° SSE 19:01:56 83° WSW 19:06:17 10° NNW
SPOT 1/Viking Rocket 3.5 19:00:19 10° SSE 19:05:29 89° WSW 19:10:40 10° NNW
Cosmos 1943 4.4 19:07:44 20° E 19:07:44 20° E 19:10:57 10° NE
Meteor 1-11 Rocket 3.7 19:01:26 10° SSW 19:07:00 84° W 19:12:33 10° N
ATLAS CENTAUR R/B 3.8 19:04:21 10° W 19:07:02 19° NW 19:09:49 10° N
Cosmos 2278 Rocket 4.1 19:03:00 10° NW 19:07:51 30° WSW 19:12:41 10° SSW
Cosmos 1428 Rocket 4.4 19:03:09 10° N 19:09:15 67° E 19:15:20 10° SSE
Cosmos 1515 Rocket 4.4 19:05:10 10° NNW 19:09:24 52° W 19:13:40 10° S
SL-14 R/B 3.3 19:06:39 10° N 19:10:24 51° ENE 19:12:47 20° SSE
Meteor 2-9 Rocket 4.1 19:05:04 10° S 19:10:26 89° WNW 19:16:00 10° N
ADEOS 3.7 19:07:33 10° S 19:12:45 77° WSW 19:18:00 10° NNW
Meteor 1-21 4.5 19:09:54 10° N 19:15:32 51° ENE 19:19:45 18° SE
CSL-04 Rocket 3.9 19:11:58 18° SE 19:15:39 48° ENE 19:20:44 10° N
USA 59 Rocket 3.4 19:15:27 10° W 19:17:11 12° WSW 19:19:05 10° SW
CZ-4B DEB 4.2 19:11:46 10° SSE 19:17:16 87° WSW 19:22:47 10° NNW
CZ-4B R/B 3.2 19:13:15 16° SE 19:17:29 55° ENE 19:22:41 10° N
Cosmos 1500 Rocket 3.6 19:17:51 10° SSW 19:22:11 78° W 19:26:32 10° N
USA 186 1.6 19:24:41 43° SSE 19:25:36 72° ENE 19:28:48 10° N
CZ-4B R/B 4.1 19:23:21 10° S 19:28:01 54° W 19:32:49 10° NNW
SJ-6B 3.7 19:25:08 10° S 19:28:34 44° W 19:32:02 10° NNW
ARGOS Delta rocket 4.2 19:23:51 10° S 19:28:42 66° W 19:33:18 10° NNW
Cosmos 773 Rocket 4.2 19:25:11 10° SSW 19:30:27 75° WNW 19:35:46 10° NNE
Cosmos 1743 Rocket 3.5 19:27:50 10° S 19:32:10 82° W 19:36:33 10° N
Cosmos 2237 Rocket 4.2 19:27:36 10° WSW 19:32:28 30° NW 19:37:23 10° N
Cosmos 2195 Rocket 4.4 19:27:00 10° N 19:33:10 88° E 19:39:20 10° S
SL-08 R/B 4.4 19:32:54 10° N 19:37:39 48° WNW 19:42:18 10° SW
Cosmos 2026 Rocket 3.8 19:32:02 10° N 19:38:15 82° E 19:43:31 14° S
Cosmos 1943 Rocket 4.3 19:34:18 10° NW 19:38:40 24° WSW 19:43:02 10° SSW
Helios 1A 3.7 19:34:48 10° N 19:38:46 52° WNW 19:42:42 10° SSW
SeaSat 1 4.3 19:36:17 10° N 19:40:33 31° NW 19:44:48 10° WSW
Sich 1 3.8 19:36:54 10° SSW 19:41:05 52° WNW 19:45:19 10° N
Okean O Rocket 1.7 19:41:03 48° ESE 19:41:48 55° ENE 19:46:07 10° N
Tiangong -0.8 19:39:03 10° WSW 19:41:06 30° SSW 19:41:06 30° SSW
CARTOSAT-1 3.6 19:40:01 24° S 19:42:31 77° WSW 19:46:47 10° NNW
GEOS 3 Rocket 3.9 19:41:58 38° E 19:43:34 53° NE 19:48:35 10° NNW
USA 32 4.2 19:40:27 10° N 19:45:42 76° W 19:50:47 11° S
Cosmos 1092 Rocket 4.0 19:42:29 10° N 19:48:53 86° W 19:54:21 14° S
CZ-4 R/B 2.5 19:45:59 12° SSW 19:49:21 40° W 19:53:06 10° NNW
BREEZE-M R/B 4.4 19:46:39 10° WNW 19:51:40 85° NNE 20:00:21 29° ESE
CSL-04 Debris 4.2 19:48:56 22° S 19:52:37 79° WSW 19:58:07 10° NNW
Cosmos 1656 Rocket 3.8 19:47:11 10° NNW 19:52:47 72° WSW 19:55:32 31° S
SPOT 5 3.4 19:54:02 37° NE 19:54:02 37° NE 19:57:29 10° N
Cosmos 2297 3.7 19:49:12 10° NNW 19:54:51 80° WSW 19:57:17 36° SSE
Aureole 3 Rocket 4.3 19:51:38 10° SSW 19:57:09 48° W 20:01:13 10° N
ARIANE 6 FM1 Upper Stage 2.6 19:52:55 10° SW 19:57:12 89° NNW 19:58:11 53° NE
MOS 1-B 4.3 19:54:21 30° SSE 19:57:23 89° WSW 20:03:12 10° NNW
CZ-4B R/B 4.4 19:55:46 12° SSW 19:59:02 35° W 20:02:52 10° NNW
Cosmos 2369 Rocket 2.1 19:53:52 10° NNW 19:59:37 88° WSW 20:01:28 45° SSE
Terra 3.3 20:00:58 23° NE 20:00:58 23° NE 20:03:36 10° N
BREEZE-M DEB (TANK) 4.2 19:40:19 10° W 20:00:59 67° N 20:03:29 36° ENE
CRYOSAT 2 4.2 19:59:58 10° N 20:04:53 75° E 20:05:19 69° SE
Cosmos 1634 Rocket 4.0 19:58:42 10° S 20:05:00 82° W 20:11:23 10° N
Cosmos 1441 Rocket 4.0 20:03:44 28° SW 20:05:15 46° WNW 20:08:42 10° N
Cosmos 1633 Rocket 3.5 20:09:43 49° NNE 20:09:43 49° NNE 20:13:01 10° NNE
Okean 1-7 4.2 20:04:54 10° N 20:07:26 30° NNE 20:07:26 30° NNE
Cosmos 1975 4.1 20:05:31 10° SSW 20:09:09 39° WNW 20:12:50 10° N
Cosmos 2228 Rocket 3.2 20:04:56 10° NNW 20:09:31 76° W 20:10:04 65° SSW
Resurs 01 Rocket 2.8 20:07:53 20° SSW 20:10:26 40° W 20:14:37 10° NNW
Cosmos 2084 Rocket 4.2 20:06:51 10° SW 20:11:04 51° NW 20:13:11 26° NNE
MetOp-B 4.1 20:11:40 59° ENE 20:11:43 59° ENE 20:17:00 10° N
NOSS 3-4 (A) 4.0 20:05:39 10° NW 20:12:35 70° WSW 20:15:59 37° SSE
NOSS 3-4 (C) 4.0 20:05:44 10° NW 20:12:41 71° WSW 20:16:02 37° SSE
Okean-O 3.0 20:17:08 55° N 20:17:08 55° N 20:20:40 10° N
Cosmos 192 4.2 20:13:09 10° NNW 20:18:03 82° WSW 20:18:09 81° SW
USA 306 4.3 20:15:47 10° NW 20:17:50 28° NNW 20:17:50 28° NNW
MOS 1 Rocket 3.7 20:20:11 61° NE 20:20:11 61° NE 20:25:07 10° N
Cosmos 1862 Rocket 3.8 20:17:26 10° NNW 20:21:39 67° WNW 20:21:39 67° WNW
ISS -1.4 20:20:26 10° NW 20:22:09 23° NNW 20:22:09 23° NNW
Cosmos 1707 Rocket 4.1 20:20:37 10° NNW 20:24:56 54° W 20:25:01 54° W
ERS-1 Rocket 3.7 20:26:14 43° NNE 20:26:14 43° NNE 20:29:56 10° N
IRS-1A Rocket 4.4 20:27:25 61° NE 20:27:25 61° NE 20:32:38 10° N
Cosmos 1666 Rocket 4.1 20:28:16 54° WNW 20:28:16 54° WNW 20:32:28 10° N
Cosmos 2142 Rocket 4.4 20:32:13 58° SSW 20:33:34 86° W 20:39:46 10° N
Cosmos 2279 Rocket 4.1 20:33:08 28° SSW 20:36:31 70° W 20:42:44 10° N
ACS3 Solar Sail 2.5 20:33:50 27° SSW 20:37:15 52° W 20:43:31 10° NNW
SL-16 R/B 4.0 20:33:08 10° WSW 20:38:04 30° NW 20:43:01 10° N
Cosmos 1943 3.5 20:44:50 10° SW 20:50:25 64° WNW 20:56:03 10° NNE
Ariane Rocket 4.4 20:57:46 32° N 20:57:46 32° N 21:00:33 10° N
ATLAS 2AS CENTAUR R/B 4.0 20:57:35 10° NNW 21:03:20 27° NNE 21:03:49 27° NE
Cosmos 1655 Rocket 4.4 20:58:31 10° N 21:03:31 54° NNE 21:03:31 54° NNE
Okean O Rocket 4.2 21:18:23 16° W 21:18:23 16° W 21:21:03 10° NW
USA 267 4.4 21:18:34 32° NNE 21:19:48 34° NNE 21:25:35 10° NW
Terra 4.1 21:39:40 22° NW 21:39:40 22° NW 21:41:32 10° NNW
Cosmos 2344 4.1 22:07:50 10° NW 22:15:07 72° NNW 22:15:07 72° NNW
ATLAS 2AS CENTAUR R/B 4.3 22:48:18 10° NW 22:51:13 28° NW 22:51:13 28° NW
